OneWeb SL0370

operational
NORAD ID: 49296 Int'l Des: 2021-090 Owner: ONEWEBN Country: UK Constellation: oneweb
LEOCIRCULARPOLARONEWEB_TYPE

OneWeb SL0370について

説明を読み込み中...

リアルタイム位置

3D地球を読み込み中...

次回通過

高度履歴

Altitude vs Time

uPlot chart will show altitude changes over time

軌道要素

1 49296U 21090T 25258.17536528 .00000019 00000-0 15017-4 0 9999
2 49296 87.9276 329.2710 0002020 108.3157 251.8196 13.20769558193566
Epoch: Sep 15, 2025 • Age: 13 hours

現在のステータス

高度 1192.0 km
速度 7.26 km/s
衛星直下点 -24.56°S, 81.14°E
打ち上げ日 Oct 14, 2021
運用期間 3.9 years
タイプ internet

技術仕様

分類 Payload
質量 148.00 kg
乾燥質量 140.00 kg
総質量 148.00 kg
長さ 1.30 m
直径 1.00 m
スパン 5.00 m
形状 Trapezoid+2 pan
製造者 ONEWUS
バスタイプ ARROW
フェーズステータス In Orbit
所有者/国 ONEWEBN/UK

大規模コンステレーション

Loading constellations...